Location: Unspecified
(39.4946°N, 0.0000°E)
Time: 05:05:46
(UTC+00:00)

Vanguard 1 Rocket - All Passes

Search period start: 04 April 2026 00:00
Search period end: 14 April 2026 00:00
Orbit: 654 x 4213 km, 34.3° (Epoch: 28 March)

Date Brightness Start Highest point End Pass type
(mag) Time Alt. Az. Time Alt. Az. Time Alt. Az.
4 Apr - 00:57:10 10° SW 01:17:42 57° SSE 01:28:40 10° E visible
4 Apr - 03:29:54 10° W 03:45:15 67° S 03:52:54 10° ESE visible
4 Apr - 06:01:42 10° W 06:10:29 38° SSW 06:15:43 10° SE daylight
4 Apr - 21:16:42 10° S 21:33:40 23° SE 21:47:02 10° E visible
4 Apr - 23:41:21 10° SW 00:03:16 48° SSE 00:16:13 10° E visible
5 Apr - 02:13:09 10° WSW 02:31:52 67° S 02:41:14 10° E visible
5 Apr - 04:46:05 10° W 04:58:21 56° SSW 05:04:48 10° ESE visible
5 Apr - 07:17:50 10° W 07:22:08 16° SW 07:25:30 10° S daylight
5 Apr - 20:08:38 10° SSE 20:18:50 14° SE 20:28:05 10° ESE visible
5 Apr - 22:26:42 10° SSW 22:48:25 39° SSE 23:03:03 10° E visible
6 Apr - 00:56:21 10° WSW 01:17:52 63° SSE 01:29:16 10° E visible
6 Apr - 03:29:43 10° W 03:45:35 67° S 03:53:29 10° ESE visible
6 Apr - 06:01:58 10° W 06:10:38 32° SW 06:15:55 10° SSE daylight
6 Apr - 21:13:43 10° S 21:33:23 29° SE 21:48:39 10° E visible
6 Apr - 23:40:08 10° SW 00:03:16 55° SSE 00:16:52 10° E visible
7 Apr - 02:12:45 10° WSW 02:32:08 70° S 02:41:50 10° E visible
7 Apr - 04:46:04 10° W 04:58:36 51° SSW 05:05:15 10° SE visible
7 Apr - 07:19:25 10° WSW 07:22:04 12° SW 07:24:20 10° SSW daylight
7 Apr - 20:03:19 10° S 20:18:28 19° SE 20:31:51 10° E visible
7 Apr - 22:25:01 10° SW 22:48:14 46° SSE 23:03:49 10° E visible
8 Apr - 00:55:41 10° WSW 01:18:01 68° S 01:29:50 10° E visible
8 Apr - 03:29:32 10° W 03:45:53 65° SSW 03:54:01 10° ESE visible
8 Apr - 06:02:19 10° W 06:10:39 27° SW 06:15:56 10° SSE daylight
8 Apr - 21:11:24 10° SSW 21:33:00 35° SE 21:49:46 10° E visible
8 Apr - 23:39:09 10° SW 00:03:14 61° SSE 00:17:26 10° E visible
9 Apr - 02:12:25 10° W 02:32:24 71° S 02:42:24 10° ESE visible
9 Apr - 04:46:04 10° W 04:58:45 45° SSW 05:05:35 10° SE visible
9 Apr - 19:59:50 10° S 20:17:57 25° SE 20:33:58 10° E visible
9 Apr - 22:23:40 10° SW 22:47:59 52° SSE 23:04:25 10° E visible
10 Apr - 00:55:10 10° WSW 01:18:08 71° S 01:30:23 10° E visible
10 Apr - 03:29:21 10° W 03:46:05 61° SSW 03:54:30 10° ESE visible
10 Apr - 06:02:49 10° W 06:10:33 22° SW 06:15:43 10° S daylight
10 Apr - 18:52:10 10° SSE 19:03:17 15° SE 19:14:06 10° ESE visible
10 Apr - 21:09:35 10° SSW 21:32:34 42° SE 21:50:34 10° E visible
10 Apr - 23:38:23 10° WSW 00:03:12 66° SSE 00:17:56 10° E visible
11 Apr - 02:12:08 10° W 02:32:36 71° S 02:42:56 10° ESE visible
11 Apr - 04:46:05 10° W 04:58:46 39° SW 05:05:47 10° SSE visible
11 Apr - 19:57:16 10° S 20:17:20 31° SE 20:35:19 10° E visible
11 Apr - 22:22:36 10° SW 22:47:44 58° SSE 23:04:56 10° E visible
12 Apr - 00:54:44 10° WSW 01:18:15 73° S 01:30:54 10° E visible
12 Apr - 03:29:11 10° W 03:46:13 57° SSW 03:54:54 10° SE visible
12 Apr - 06:03:37 10° W 06:10:19 18° SW 06:15:06 10° S daylight
12 Apr - 18:47:33 10° SSE 19:02:35 20° SE 19:17:27 10° E visible
12 Apr - 21:08:11 10° SSW 21:32:04 48° SSE 21:51:09 10° E visible
12 Apr - 23:37:47 10° WSW 00:03:08 71° S 00:18:25 10° E visible
13 Apr - 02:11:51 10° W 02:32:45 69° SSW 02:43:25 10° ESE visible
13 Apr - 04:46:10 10° W 04:58:39 34° SW 05:05:49 10° SSE visible
13 Apr - 19:55:19 10° SSW 20:16:38 37° SE 20:36:13 10° E visible
13 Apr - 22:21:47 10° SW 22:47:27 64° SSE 23:05:22 10° E visible
